Weather History for Ironwood, MI

Change the Weather History Date:

Friday, January 31, 2014

  Actual Average Record
Temperature  
Mean Temperature -2 °F -  
Max Temperature 8 °F 24 °F 44 °F (1999)
Min Temperature -11 °F 9 °F -11 °F (2004)
Degree Days  
Heating Degree Days 66    
Moisture  
Dew Point -11 °F    
Average Humidity 64    
Maximum Humidity 84    
Minimum Humidity 52    
Precipitation  
Precipitation 0.00 in - - ()
Sea Level Pressure  
Sea Level Pressure 29.92 in    
Wind  
Wind Speed 10 mph (SW)    
Max Wind Speed 15 mph    
Max Gust Speed 21 mph    
Visibility 10 miles    
Events      
Averages and records for this station are not official NWS values.
T = Trace of Precipitation, MM = Missing Value Source: NWS Daily Summary

Daily Weather History Graph

Daily Weather History Graph

Search for Another Location

Airport:

Trip Planner

Search our weather history database for the weather conditions in past years. The results will help you decide how hot, cold, wet, or windy it might be!

Date:

Astronomy

Jan. 31, 2014 Rise Set
Actual Time 7:25 AM CST 5:03 PM CST
Civil Twilight 6:53 AM CST 5:35 PM CST
Nautical Twilight 6:16 AM CST 6:11 PM CST
Astronomical Twilight 5:41 AM CST 6:47 PM CST
Moon 7:29 AM CST (1/31) 6:35 PM CST (1/31)
Length of Visible Light 10h 42m
Length of Day
9h 37m
New Moon, 1% of the Moon is Illuminated
Jan 31
New Moon
Feb 6
First Quarter
Feb 14
Full
Feb 22
Last Quarter
Mar 1
New

Hourly Weather History & Observations

Time (CST) Temp. Windchill Dew Point Humidity Pressure Visibility Wind Dir Wind Speed Gust Speed Precip Events Conditions
12:15 AM -0.4 °F -19.2 °F -9.4 °F 66% 29.83 in 7.0 mi West 13.8 mph 19.6 mph N/A   Overcast
12:35 AM -0.4 °F -16.7 °F -9.4 °F 66% 29.83 in 8.0 mi WSW 10.4 mph - N/A   Overcast
12:55 AM -2.2 °F -21.5 °F -11.2 °F 66% 29.85 in 10.0 mi WSW 13.8 mph - N/A   Overcast
1:15 AM -2.2 °F -22.2 °F -9.4 °F 71% 29.86 in 8.0 mi WSW 15.0 mph - N/A   Overcast
1:35 AM -2.2 °F -21.5 °F -11.2 °F 66% 29.86 in 7.0 mi WSW 13.8 mph - N/A   Overcast
1:55 AM -4.0 °F -22.1 °F -11.2 °F 71% 29.87 in 10.0 mi WSW 11.5 mph - N/A   Mostly Cloudy
2:15 AM -5.8 °F -25.2 °F -13.0 °F 71% 29.88 in 10.0 mi West 12.7 mph - N/A   Partly Cloudy
2:35 AM -5.8 °F -24.4 °F -14.8 °F 65% 29.89 in 10.0 mi West 11.5 mph - N/A   Clear
2:55 AM -5.8 °F -25.2 °F -13.0 °F 71% 29.88 in 10.0 mi West 12.7 mph - N/A   Clear
3:15 AM -7.6 °F -25.7 °F -16.6 °F 65% 29.89 in 10.0 mi WSW 10.4 mph - N/A   Clear
3:35 AM -7.6 °F -27.5 °F -14.8 °F 71% 29.88 in 10.0 mi West 12.7 mph - N/A   Clear
3:55 AM -7.6 °F -25.7 °F -16.6 °F 65% 29.89 in 10.0 mi WSW 10.4 mph - N/A   Clear
4:15 AM -9.4 °F -28.9 °F -16.6 °F 71% 29.89 in 10.0 mi West 11.5 mph - N/A   Clear
4:35 AM -9.4 °F -26.8 °F -18.4 °F 65% 29.89 in 10.0 mi WSW 9.2 mph - N/A   Clear
4:55 AM -9.4 °F -27.9 °F -16.6 °F 71% 29.90 in 10.0 mi WSW 10.4 mph - N/A   Clear
5:15 AM -9.4 °F -26.8 °F -18.4 °F 65% 29.90 in 10.0 mi West 9.2 mph - N/A   Clear
5:35 AM -9.4 °F -27.9 °F -16.6 °F 71% 29.91 in 10.0 mi West 10.4 mph - N/A   Clear
5:55 AM -11.2 °F -29.0 °F -18.4 °F 70% 29.91 in 10.0 mi WSW 9.2 mph - N/A   Clear
6:15 AM -11.2 °F -31.1 °F -20.2 °F 64% 29.92 in 10.0 mi WSW 11.5 mph - N/A   Clear
6:35 AM -11.2 °F -31.1 °F -16.6 °F 77% 29.93 in 10.0 mi West 11.5 mph - N/A   Clear
6:55 AM -11.2 °F -31.1 °F -16.6 °F 77% 29.93 in 10.0 mi WSW 11.5 mph - N/A   Clear
7:15 AM -11.2 °F -29.0 °F -20.2 °F 64% 29.94 in 10.0 mi WSW 9.2 mph - N/A   Clear
7:35 AM -11.2 °F -27.8 °F -16.6 °F 77% 29.95 in 10.0 mi WSW 8.1 mph - N/A   Clear
7:55 AM -11.2 °F -29.0 °F -18.4 °F 70% 29.96 in 2.5 mi WSW 9.2 mph - N/A   Clear
8:15 AM -11.2 °F -29.0 °F -18.4 °F 70% 29.96 in 1.2 mi WSW 9.2 mph - N/A   Clear
8:35 AM -11.2 °F -29.0 °F -14.8 °F 84% 29.97 in 10.0 mi WSW 9.2 mph - N/A   Clear
8:55 AM -9.4 °F -26.8 °F -14.8 °F 77% 29.97 in 8.0 mi West 9.2 mph - N/A   Clear
9:15 AM -7.6 °F -23.4 °F -16.6 °F 65% 29.96 in 10.0 mi West 8.1 mph - N/A   Clear
9:35 AM -7.6 °F -23.4 °F -11.2 °F 84% 29.96 in 10.0 mi WSW 8.1 mph - N/A   Clear
9:55 AM -5.8 °F -23.4 °F -14.8 °F 65% 29.96 in 10.0 mi WSW 10.4 mph - N/A   Clear
10:15 AM -5.8 °F -21.2 °F -14.8 °F 65% 29.97 in 10.0 mi WSW 8.1 mph - N/A   Clear
10:35 AM -4.0 °F -19.0 °F -11.2 °F 71% 29.98 in 10.0 mi West 8.1 mph - N/A   Clear
10:55 AM -2.2 °F -18.0 °F -14.8 °F 55% 29.98 in 10.0 mi WSW 9.2 mph - N/A   Clear
11:15 AM -2.2 °F -18.0 °F -11.2 °F 66% 29.98 in 10.0 mi WSW 9.2 mph - N/A   Clear
11:35 AM -0.4 °F -14.7 °F -11.2 °F 60% 29.97 in 10.0 mi WSW 8.1 mph - N/A   Clear
11:55 AM -0.4 °F -16.7 °F -9.4 °F 66% 29.97 in 10.0 mi WSW 10.4 mph - N/A   Clear
12:15 PM 1.4 °F -15.3 °F -9.4 °F 61% 29.96 in 10.0 mi WSW 11.5 mph - N/A   Clear
12:35 PM 1.4 °F -9.9 °F -11.2 °F 56% 29.96 in 10.0 mi WSW 5.8 mph - N/A   Clear
12:55 PM 3.2 °F -11.3 °F -7.6 °F 61% 29.94 in 1.8 mi South 9.2 mph - N/A   Clear
1:15 PM 3.2 °F -11.3 °F -9.4 °F 56% 29.93 in 10.0 mi SSW 9.2 mph - N/A   Clear
1:35 PM 6.8 °F -6.9 °F -7.6 °F 52% 29.92 in 10.0 mi SSW 9.2 mph - N/A   Clear
1:55 PM 6.8 °F -7.8 °F -5.8 °F 56% 29.92 in 10.0 mi South 10.4 mph 16.1 mph N/A   Clear
2:15 PM 6.8 °F -9.3 °F -7.6 °F 52% 29.91 in 10.0 mi SW 12.7 mph 16.1 mph N/A   Clear
2:35 PM 8.6 °F -7.0 °F -5.8 °F 52% 29.91 in 10.0 mi SW 12.7 mph 17.3 mph N/A   Clear
2:55 PM 8.6 °F -5.5 °F -5.8 °F 52% 29.91 in 10.0 mi SSW 10.4 mph 17.3 mph N/A   Clear
3:15 PM 8.6 °F -5.5 °F -5.8 °F 52% 29.91 in 10.0 mi SW 10.4 mph - N/A   Clear
3:35 PM 8.6 °F -4.7 °F -5.8 °F 52% 29.91 in 10.0 mi SSW 9.2 mph - N/A   Clear
3:55 PM 8.6 °F -7.0 °F -5.8 °F 52% 29.90 in 10.0 mi SSW 12.7 mph - N/A   Clear
4:15 PM 8.6 °F -8.3 °F -5.8 °F 52% 29.90 in 10.0 mi SW 15.0 mph 20.7 mph N/A   Clear
4:35 PM 8.6 °F -4.7 °F -5.8 °F 52% 29.90 in 10.0 mi SW 9.2 mph - N/A   Clear
4:55 PM 6.8 °F -7.8 °F -5.8 °F 56% 29.91 in 10.0 mi SW 10.4 mph - N/A   Clear
5:15 PM 6.8 °F -4.8 °F -7.6 °F 52% 29.91 in 10.0 mi SSW 6.9 mph - N/A   Clear
5:35 PM 6.8 °F -4.8 °F -7.6 °F 52% 29.91 in 10.0 mi SSW 6.9 mph - N/A   Clear
5:55 PM 5.0 °F -6.9 °F -7.6 °F 56% 29.92 in 10.0 mi SSW 6.9 mph - N/A   Clear
6:15 PM 3.2 °F -11.3 °F -7.6 °F 61% 29.92 in 10.0 mi SSW 9.2 mph - N/A   Clear
6:35 PM 3.2 °F -10.3 °F -7.6 °F 61% 29.92 in 10.0 mi SSW 8.1 mph - N/A   Clear
6:55 PM 3.2 °F -10.3 °F -9.4 °F 56% 29.92 in 10.0 mi SSW 8.1 mph - N/A   Clear
7:15 PM 1.4 °F -12.5 °F -9.4 °F 61% 29.92 in 10.0 mi SW 8.1 mph - N/A   Clear
7:35 PM 1.4 °F -13.5 °F -9.4 °F 61% 29.93 in 10.0 mi SSW 9.2 mph - N/A   Clear
7:55 PM 1.4 °F -14.5 °F -9.4 °F 61% 29.93 in 10.0 mi SSW 10.4 mph - N/A   Clear
8:15 PM -0.4 °F -16.7 °F -9.4 °F 66% 29.93 in 10.0 mi SW 10.4 mph - N/A   Clear
8:35 PM -0.4 °F -13.4 °F -11.2 °F 60% 29.93 in 10.0 mi SSW 6.9 mph - N/A   Clear
8:55 PM -0.4 °F -12.0 °F -9.4 °F 66% 29.93 in 10.0 mi SSW 5.8 mph - N/A   Clear
9:15 PM -0.4 °F -13.4 °F -9.4 °F 66% 29.93 in 10.0 mi SSW 6.9 mph - N/A   Clear
9:35 PM -0.4 °F -12.0 °F -11.2 °F 60% 29.93 in 10.0 mi SSW 5.8 mph - N/A   Clear
9:55 PM -0.4 °F -10.4 °F -9.4 °F 66% 29.92 in 10.0 mi SW 4.6 mph - N/A   Clear
10:15 PM -0.4 °F -12.0 °F -9.4 °F 66% 29.93 in 10.0 mi SSW 5.8 mph - N/A   Clear
10:35 PM -0.4 °F -13.4 °F -9.4 °F 66% 29.94 in 10.0 mi SSW 6.9 mph - N/A   Clear
10:55 PM -0.4 °F -10.4 °F -9.4 °F 66% 29.94 in 10.0 mi SSW 4.6 mph - N/A   Clear
11:15 PM -0.4 °F -8.3 °F -9.4 °F 66% 29.94 in 10.0 mi SSW 3.5 mph - N/A   Clear
11:35 PM -2.2 °F - -11.2 °F 66% 29.94 in 10.0 mi Calm Calm - N/A   Clear
11:55 PM -2.2 °F - -11.2 °F 66% 29.95 in 10.0 mi Calm Calm - N/A   Clear